Regional Weather Roundup
Issued by NWS

Home | Current Version | Previous Version | Text Only | Print | Product List | Glossary Off
Versions: 1 2 3 4 5 6 7 8 9 10 11 12 13 14 15 16 17 18 19 20 21 22 23 24 25 26 27 28 29 30 31 32 33 34 35 36 37 38 39 40 41 42 43 44 45 46 47 48 49 50

000
ASUS43 KMPX 250110
RWRMN
WEATHER ROUNDUP FOR MINNESOTA
NATIONAL WEATHER SERVICE TWIN CITIES/CHANHASSEN MN
800 PM CDT MON JUL 24 2017


NOTE: "FAIR" INDICATES FEW OR NO CLOUDS BELOW 12,000 FEET WITH NO
SIGNIFICANT WEATHER AND/OR OBSTRUCTIONS TO VISIBILITY. N/A MEANS
CURRENT SKY AND/OR WEATHER CONDITIONS ARE NOT AVAILABLE.

MNZ060>063-068>070-250200-
   Twin Cities Metro

CITY           SKY/WX    TMP DP  RH WIND       PRES   REMARKS
TWIN CITIES    MOCLDY    75  60  59 SE8       30.04R
ST PAUL        CLOUDY    73  62  68 SE7       30.04R
CRYSTAL        PTCLDY    74  57  55 S7        30.02R
BLAINE         MOCLDY    75  61  60 SE6       30.04R
LAKEVILLE      CLOUDY    70  61  73 CALM      30.05R
EDEN PRAIRIE   PTCLDY    74  60  61 S7        30.03R
SOUTH ST PAUL  PTCLDY    74  59  58 S6        30.04R
LAKE ELMO      FAIR      72  61  68 SE5       30.06R
$$
MNZ001>005-007-008-013>017-022>024-027-028-250200-
   Northwest Minnesota

CITY           SKY/WX    TMP DP  RH WIND       PRES   REMARKS
BEMIDJI        CLOUDY    72  61  68 SE12      29.97S
HALLOCK        SUNNY     75  64  69 S15       29.84F
ROSEAU         PTCLDY    75  66  73 S10       29.90S
WARROAD        CLEAR     77  64  65 S12       29.90F
THIEF RVR FALL CLOUDY    75  62  64 S10       29.92S
CROOKSTON      MOSUNNY   75  63  64 S14G21    29.88F
FOSSTON        CLOUDY    73  59  60 SE9G17    29.93F
DETROIT LAKES  MOCLDY    72  61  68 SE13G22   29.94F
MOORHEAD       MOCLDY    75  63  64 SE10      29.90R
PARK RAPIDS    CLOUDY    74  61  63 SE12      29.97F
MAHNOMEN       FAIR      73  61  65 SE12      29.92F
$$
MNZ006-009>011-018-025>026-250200-
   North Central Minnesota

CITY           SKY/WX    TMP DP  RH WIND       PRES   REMARKS
BAUDETTE       CLEAR     75  59  57 S10       29.93S
FLAG ISLAND    CLEAR     75  64  69 S10       29.88F
INTL FALLS     CLEAR     73  56  54 S3        29.96F
WASKISH        CLOUDY    73  59  60 S5        29.96F
BIG FORK       CLOUDY    72  59  64 S6        29.99F
LONGVILLE      CLOUDY    70  63  78 SE7       30.00F
GRAND RAPIDS   CLOUDY    70  61  73 S7        30.03F
CRANE LAKE     CLEAR     73  54  49 CALM      30.02S
ORR            CLEAR     72  54  53 SE5       29.98F
COOK           PTCLDY    72  55  56 CALM      30.02S
WALKER         FAIR      70  60  69 SE5       29.98F
$$
MNZ012-019>021-037-250200-
   Northeast Minnesota

CITY           SKY/WX    TMP DP  RH WIND       PRES   REMARKS
DULUTH         PTCLDY    64  55  72 E8        30.05S
ELY            CLEAR     72  50  46 S7        30.04S
HIBBING        CLOUDY    69  55  60 S3        30.02F
EVELETH        CLEAR     72  50  45 SE5       30.04F
DULUTH HARBOR  CLEAR     64  59  82 N3        30.05S
TWO HARBORS    CLEAR     68  57  68 CALM      30.04S
SILVER BAY     CLEAR     64  54  68 CALM      30.04S
GRAND MARAIS     N/A     60  55  83 CALM      30.04S
G MARAIS ARPRT CLEAR     63  48  59 CALM      30.09S
$$
MNZ029>031-032-039>041-046>048-054>057-064-250200-
   West Central Minnesota

CITY           SKY/WX    TMP DP  RH WIND       PRES   REMARKS
FERGUS FALLS   CLOUDY    73  61  64 SE13G18   29.89S
WHEATON        DRIZZLE   70  64  83 SE15      29.92F
MORRIS         MOCLDY    72  63  73 SE9       29.95R
ALEXANDRIA     LGT RAIN  70  63  78 SE15      29.96F
ELBOW LAKE     DRIZZLE   69  64  82 SE10G17   29.92R
WADENA         CLOUDY    72  63  73 SE7       29.97S
GLENWOOD       CLOUDY    72  63  73 SE5       29.99R
APPLETON       CLOUDY    75  61  60 SE9       29.96R
BENSON         CLOUDY    73  63  68 S8        29.99R
ORTONVILLE     CLOUDY    73  63  68 SE9       29.94S
MADISON        CLOUDY    79  64  61 SE10G18   29.95R
WILLMAR        FAIR      73  64  73 SE10      29.98F
$$
MNZ033>034-036-042>043-049>051-058-059-250200-
   Central Minnesota

CITY           SKY/WX    TMP DP  RH WIND       PRES   REMARKS
ST CLOUD       PTCLDY    72  62  71 SE7       30.00F
SAUK CENTRE    FAIR      71  61  71 E7        29.98F
PAYNESVILLE    MOCLDY    74  62  66 SE9       29.99F
AITKIN         MOCLDY    70  61  73 S5        30.01F
PINE RIVER     PTCLDY    72  61  68 S8        30.03F
BRAINERD       CLOUDY    70  61  73 SE6       30.01F
STAPLES        CLOUDY    70  61  73 SE6       29.98F
LONG PRAIRIE   FAIR      70  61  73 E7        30.00R
LITTLE FALLS   MOCLDY    70  59  68 SE6       29.99F
LITCHFIELD     CLOUDY    73  63  68 SE7       30.01F
BUFFALO        PTCLDY    73  59  62 SE7       30.03F
MAPLE LAKE     PTCLDY    73  63  70 SE3       30.02F
HUTCHINSON     CLEAR     72  64  76 E9        30.01F
$$
MNZ037-044-045-052-053-250200-
   East Central Minnesota

CITY           SKY/WX    TMP DP  RH WIND       PRES   REMARKS
PRINCETON      PTCLDY    73  63  68 CALM      30.03S
MORA           PTCLDY    70  61  73 CALM      30.05F
CAMBRIDGE      PTCLDY    73  59  60 CALM      30.02S
RUSH CITY      PTCLDY    71  61  70 SE3       30.05S
MOOSE LAKE     PTCLDY    70  61  73 CALM      30.03S
HINCKLEY       FAIR      72  61  68 SE3       30.05S
CLOQUET        CLOUDY    66  55  68 SE5       30.05S
MCGREGOR       PTCLDY    70  61  73 SE5       30.03F
$$
MNZ071>073-080-081-089-090-097-098-250200-
   Southwest Minnesota

CITY           SKY/WX    TMP DP  RH WIND       PRES   REMARKS
MONTEVIDEO     CLOUDY    75  63  64 S14       29.94F
GRANITE FALLS  CLOUDY    77  64  65 SE13      29.97S
CANBY          CLOUDY    77  64  65 E10G16    29.94R
MARSHALL       PTCLDY    76  65  68 SE15      29.95F
REDWOOD FALLS  PTCLDY    74  62  66 SE10      29.97F
OLIVIA         PTCLDY    73  63  68 SE12      29.97F
PIPESTONE      PTCLDY    77  64  65 S10       29.96F
WINDOM         CLEAR     73  63  68 E7        30.00R
WORTHINGTON    CLEAR     76  63  64 SE10      29.99S
JACKSON        CLEAR     73  63  68 CALM      30.02R
TRACY          PTCLDY    76  67  73 SE8       29.98F
SLAYTON        CLEAR     75  63  66 E10       29.99F
$$
MNZ065>067-074>077-082>085-091>093-250200-
   South Central Minnesota

CITY           SKY/WX    TMP DP  RH WIND       PRES   REMARKS
MANKATO        PTCLDY    72  63  73 SE7       30.03S
NEW ULM        CLEAR     73  61  64 SE9       30.01S
ST JAMES       CLEAR     72  64  78 E7        30.01F
FAIRMONT       CLEAR     73  65  75 SE7       30.01S
GLENCOE        PTCLDY    73  66  76 E8        30.01F
FARIBAULT      CLOUDY    72  61  68 SE5       30.06R
OWATONNA       PTCLDY    73  63  68 E5        30.06R
WASECA         CLOUDY    72  63  73 SE3       30.06R
ALBERT LEA     PTCLDY    73  61  64 SE8       30.05R
$$
MNZ078>079-086>088-094>096-250200-
   Southeast Minnesota

CITY           SKY/WX    TMP DP  RH WIND       PRES   REMARKS
ROCHESTER      CLEAR     68  61  78 SE8       30.07R
RED WING       CLOUDY    73  55  53 SE8       30.04R
STANTON        CLOUDY    73  61  65 CALM      30.04R
DODGE CENTER   CLEAR     70  61  73 SE5       30.06S
WINONA         CLEAR     72  59  64 SE6       30.06S
AUSTIN         CLEAR     72  63  73 SE6       30.05R
PRESTON        CLEAR     69  59  71 S5        30.08S
$$
ABBREVIATIONS USED IN REMARKS
   TC - TEMPERATURES IN CELSIUS
  WCI - WIND CHILL INDEX
   HX - HEAT INDEX
  VSB - VISIBILITY
$$




USA.gov is the U.S. government's official web portal to all federal, state and local government web resources and services.